This is the latest recevied weather packets stored in our database for station/object G0SCV-10. If no packets are shown the sender has not sent any weather packets the latest 10 day(s).
| Time | Temp. | Humidity | Pressure | Rain* | Wind** | Luminosity | Snow |
|---|---|---|---|---|---|---|---|
| 1787761909 | 33.89° C | 55% | 1015.6 hPa | - | - | - | - |
| 1787761008 | 33.33° C | 56% | 1015.6 hPa | - | - | - | - |
| 1787760108 | 32.22° C | 58% | 1011.1 hPa | - | - | - | - |
| 1787759208 | 31.67° C | 58% | 1017.9 hPa | - | - | - | - |
| 1787758308 | 31.67° C | 59% | 1018 hPa | - | - | - | - |
| 1787757408 | 31.11° C | 60% | 1018 hPa | - | - | - | - |
| 1787756507 | 31.11° C | 60% | 1018 hPa | - | - | - | - |
| 1787755607 | 31.11° C | 61% | 1017.5 hPa | - | - | - | - |
| 1787754706 | 30.56° C | 63% | 1017.6 hPa | - | - | - | - |
| 1787753806 | 30° C | 63% | 1006.1 hPa | - | - | - | - |
| 1787752905 | 29.44° C | 64% | 1006.1 hPa | - | - | - | - |
| 1787752005 | 29.44° C | 64% | 1006.2 hPa | - | - | - | - |
| 1787751105 | 28.89° C | 65% | 1006.3 hPa | - | - | - | - |
| 1787750204 | 28.33° C | 65% | 1006.3 hPa | - | - | - | - |
| 1787749311 | 28.33° C | 65% | 1006.4 hPa | - | - | - | - |
| 1787748404 | 27.78° C | 65% | 1006.5 hPa | - | - | - | - |
| 1787747503 | 27.78° C | 66% | 1011.4 hPa | - | - | - | - |
| 1787746603 | 27.22° C | 66% | 1011.4 hPa | - | - | - | - |
| 1787745703 | 27.22° C | 66% | 1011.4 hPa | - | - | - | - |
| 1787744803 | 26.67° C | 66% | 1011.4 hPa | - | - | - | - |
| 1787743902 | 26.67° C | 66% | 1006.8 hPa | - | - | - | - |
| 1787743002 | 26.67° C | 66% | 1006.9 hPa | - | - | - | - |
| 1787742101 | 26.67° C | 67% | 1006.9 hPa | - | - | - | - |
| 1787741201 | 26.11° C | 67% | 1006.9 hPa | - | - | - | - |
| 1787740300 | 25.56° C | 67% | 1006.9 hPa | - | - | - | - |
* Rain since midnight (hover to see other rain measurements)
** Current wind speed in m/s (hover to see current wind gust speed)